Location: *
(43.4667°N, 11.6833°E)
Time: 03:40:35
(UTC+00:00)

Lacrosse 5 - Pass Details

Date: 19 July 2019
Orbit: 717 x 722 km, 57.0° (Epoch: 01 August)

Event Time Altitude Azimuth Distance (km) Brightness Sun altitude
Rises 20:09:21 0° 300° (WNW) 3,127 6.9 -12.3°
Reaches altitude 10° 20:12:32 10° 320° (NW) 2,206 5.9 -12.7°
Maximum altitude 20:15:53 17° 2° (N) 1,756 4.5 -13.2°
Drops below altitude 10° 20:19:14 10° 44° (NE) 2,204 4.4 -13.6°
Sets 20:22:24 0° 64° (ENE) 3,124 5.0 -14.0°
